DMSP 5D-3 F18 (USA 210)

Last updated on Sun Apr 05 2026 00:02:24 GMT+0000 (Coordinated Universal Time)

1 35951U 09057A 26094.24180819 .00000363 00000+0 21100-3 0 9996 2 35951 98.9000 75.1920 0012199 99.8751 260.3800 14.14853469849135
UTC large
Height (km)
Speed (km/s)
/
Latitude / Longitude
Inclination (degrees)
Orbital Period (minutes)
Azimuth
Elevation
Range (km)
Doppler Factor

Next 0 passes for location: London (51.5072 / 0.1276)

Sorry there are no passes over London.